Erie, PA

7:43 AM EDT on October 15, 2019 (GMT -0400)
Erie International

Weather History for KERI - August, 2019

Change the Weather History Date:

Thursday, August 29, 2019

  Actual Average Record
Temperature  
Mean Temperature 69 °F 69 °F  
Max Temperature 75 °F 77 °F 93 °F (1953)
Min Temperature 62 °F 61 °F 37 °F (1982)
Degree Days  
Heating Degree Days 0 1  
Month to date heating degree days 0 4  
Since 1 June heating degree days 38 72  
Since 1 July heating degree days 0 11  
Cooling Degree Days 4 5  
Month to date cooling degree days 221 175  
Year to date cooling degree days 686 550  
Since 1 June cooling degree days 653 511  
Growing Degree Days 19 (Base 50)    
Moisture  
Dew Point 54 °F    
Average Humidity 55    
Maximum Humidity 78    
Minimum Humidity 46    
Precipitation  
Precipitation T in 0.11 in 1.06 in (1949)
Month to date precipitation 3.82 3.25  
Year to date precipitation 26.32 25.61  
Snow  
Snow 0.00 in 0.00 in - ()
Month to date snowfall 0.0 0.0  
Since 1 June snowfall 0.0 0.0  
Since 1 July snowfall 0.0 0.0  
Snow Depth 0.00 in    
Sea Level Pressure  
Sea Level Pressure 29.95 in    
Wind  
Wind Speed 9 mph ()    
Max Wind Speed 21 mph    
Max Gust Speed 27 mph    
Visibility 10.0 miles    
Events Rain    
T = Trace of Precipitation, MM = Missing Value Source: Averaged Metar Reports

Daily Weather History Graph

Daily Weather History Graph

Search for Another Location

Airport or City:

Astronomy

Aug. 29, 2019 Rise Set
Actual Time 6:42 AM EDT 7:59 PM EDT
Civil Twilight 6:13 AM EDT 8:28 PM EDT
Nautical Twilight 5:39 AM EDT 9:03 PM EDT
Astronomical Twilight 5:02 AM EDT 9:39 PM EDT
Moon 5:23 AM EDT (8/29) 7:56 PM EDT (8/29)
Length of Visible Light 14h 14m
Length of Day
13h 16m
Waning Crescent, 1% of the Moon is Illuminated
Aug 29
Waning Crescent
Aug 30
New
Sep 5
First Quarter
Sep 14
Full
Sep 21
Last Quarter

Hourly Weather History & Observations

Time (EDT) Temp. Dew Point Humidity Pressure Visibility Wind Dir Wind Speed Gust Speed Precip Events Conditions
12:51 AM 70.0 °F 52.0 °F 53% 29.93 in 10.0 mi WNW 13.8 mph - N/A   Mostly Cloudy
1:51 AM 69.1 °F 50.0 °F 51% 29.94 in 10.0 mi West 11.5 mph 19.6 mph N/A   Mostly Cloudy
2:51 AM 69.1 °F 50.0 °F 51% 29.94 in 10.0 mi WNW 11.5 mph 19.6 mph N/A   Overcast
3:51 AM 68.0 °F 50.0 °F 52% 29.94 in 10.0 mi WNW 9.2 mph - N/A   Mostly Cloudy
4:51 AM 68.0 °F 50.0 °F 52% 29.95 in 10.0 mi WNW 6.9 mph - N/A   Mostly Cloudy
5:51 AM 68.0 °F 50.0 °F 52% 29.95 in 10.0 mi WNW 6.9 mph - N/A   Scattered Clouds
6:51 AM 68.0 °F 50.0 °F 52% 29.97 in 10.0 mi West 8.1 mph - N/A   Mostly Cloudy
7:51 AM 63.0 °F 53.1 °F 70% 29.98 in 10.0 mi South 8.1 mph - N/A   Partly Cloudy
8:51 AM 66.9 °F 54.0 °F 63% 29.99 in 10.0 mi SSW 5.8 mph - N/A   Partly Cloudy
9:51 AM 71.1 °F 55.0 °F 57% 30.00 in 10.0 mi SSW 9.2 mph - N/A   Clear
10:51 AM 72.0 °F 54.0 °F 53% 30.00 in 10.0 mi Variable 6.9 mph - N/A   Scattered Clouds
11:51 AM 73.9 °F 55.0 °F 52% 30.00 in 10.0 mi WSW 8.1 mph - N/A   Scattered Clouds
12:51 PM 73.9 °F 55.0 °F 52% 29.99 in 10.0 mi West 9.2 mph - N/A   Clear
1:51 PM 75.0 °F 55.9 °F 51% 29.97 in 10.0 mi West 13.8 mph 21.9 mph N/A   Clear
2:51 PM 75.9 °F 55.0 °F 48% 29.96 in 10.0 mi West 11.5 mph 20.7 mph N/A   Clear
3:51 PM 75.9 °F 54.0 °F 46% 29.96 in 10.0 mi West 12.7 mph 21.9 mph N/A   Clear
4:51 PM 75.9 °F 55.9 °F 50% 29.95 in 10.0 mi West 12.7 mph 18.4 mph N/A   Clear
5:51 PM 75.0 °F 55.9 °F 51% 29.94 in 10.0 mi WSW 12.7 mph - N/A   Clear
6:51 PM 73.9 °F 57.9 °F 57% 29.92 in 10.0 mi WSW 5.8 mph - N/A   Clear
7:51 PM 73.0 °F 59.0 °F 61% 29.93 in 10.0 mi Calm Calm - N/A   Clear
8:51 PM 66.9 °F 59.0 °F 76% 29.92 in 10.0 mi South 5.8 mph - N/A   Clear
9:51 PM 70.0 °F 55.0 °F 59% 29.91 in 10.0 mi South 12.7 mph - N/A   Clear
10:51 PM 71.1 °F 54.0 °F 55% 29.92 in 10.0 mi South 13.8 mph - N/A   Clear
11:51 PM 71.1 °F 55.0 °F 57% 29.91 in 10.0 mi South 16.1 mph - 0.00 in Rain Light Rain